"Pseudo-MPEC" for P10LfMI

Created 2019 Jan 12 1:18:22 UT using Find_Orb

Click here for an explanation of pseudo-MPECs

 
 Astrometry: 
     P10LfMI  C2019 01 09'gN7^-Yyu59(\:g2l:_ZP^ERgAstrometry;@AgGbo8FOEZO@oB#F51
     P10LfMI  C2019 01 09XB@bZ?:!ZZw!\_pt`Ft@On5qredacted;qAaa^DHpfhXbMB-SDC8F51
     P10LfMI  C2019 01 09C`click.nX)V?AA8AdJuLwQn_*l(wauUlnS-V!e_1*Z2r-jw(N4dF51
     P10LfMI ^C2019 01 10.65571709 55 22.984+54 45 51.24   ~1AKI 22.15GVNEOCP568
     P10LfMI ^C2019 01 10.65672309 55 22.790+54 45 47.64   ~1AKI 22.07GVNEOCP568
     P10LfMI ^C2019 01 10.65769009 55 22.611+54 45 44.17   ~1AKI 22.08GVNEOCP568
     P10LfMI KC2019 01 11$k'K94XI6CbG'B3-otwlWmtkXb/i2%;6pv;/1sX!tDj+here1d]#H21
     P10LfMI KC2019 01 11v+!pKw24b+F=H@?F\/QnthKo?#\[=XgCfor3g:8LLZ1rwY8qYNeBH21
     P10LfMI KC2019 01 11`.Cuf+ZC5`IIrAG+3e;xP8S]`W01=T5mutcexplanationUqx@HhH21

Station data:
(568) Mauna Kea  (N19.826116 W155.472200)  US/Hawaii.
(F51) Pan-STARRS 1, Haleakala  (N20.707235 W156.255910)  US/Hawaii.
   Observers N. Primak, A. Schultz, S. Watters, J. Thiel, T. Goggia. Measurer
   PS1 Science Consortium. 1.8-m Ritchey-Chrétien + CCD.
(H21) Astronomical Research Observatory, Westfield  (N39.483057 W87.968270)
   US/Illinois. 0.76-m f/3.0 astrograph + CCD.

Orbital elements:  P10LfMI
   Perihelion 2019 Jan 12.027737 +/- 0.328 TT =  0:39:56 (JD 2458495.527737)
Epoch 2019 Jan 11.0 TT = JDT 2458494.5   Earth MOID: 0.1310   AutoNEOCP
M 359.39028363 +/- 0.19             (J2000 ecliptic)
n   0.59326124 +/- 0.00305          Peri.  158.79935 +/- 0.36
a   1.40272347 +/- 0.00481          Node   313.91917 +/- 0.06
e   0.2112691 +/- 0.00203           Incl.   13.86944 +/- 0.09
P   1.66/606.80d           H 24.6   G  0.15   U  8.9  
q 1.10637129 +/- 0.000937    Q 1.69907565 +/- 0.00864
From 9 observations 2019 Jan. 9-11 (43.5 hr); mean residual 0".17
Residuals in arcseconds: 
190109 F51  .19+  .07-    190110 568  .02+  .02-    190111 H21  .37+  .22+    
190109 F51  .11-  .25+    190110 568  .01-  .01-    190111 H21  .28-  .05+    
190109 F51  .11-  .18-    190110 568  .04+  .01-    190111 H21  .11-  .24-    

Ephemerides (geocentric):
Date (UTC) HH   RA              Dec         delta   r     elong  mag " sig PA
---- -- -- --  -------------   -----------  ------ ------ -----  --- ---- ---
2019 01 12 01  09 51 37.128   +53 23 46.34  .15707 1.1064 138.7 22.2 .409  24
2019 01 12 02  09 51 30.072   +53 21 13.40  .15696 1.1064 138.8 22.2 .431  24
2019 01 12 03  09 51 23.008   +53 18 40.14  .15684 1.1064 138.8 22.2 .454  25
2019 01 12 04  09 51 15.936   +53 16 06.55  .15673 1.1064 138.9 22.2 .477  25
2019 01 12 05  09 51 08.856   +53 13 32.64  .15662 1.1064 139.0 22.2 .501  26
2019 01 12 06  09 51 01.768   +53 10 58.39  .15651 1.1064 139.0 22.2 .526  26
2019 01 12 07  09 50 54.673   +53 08 23.82  .15640 1.1064 139.1 22.2 .552  26
2019 01 12 08  09 50 47.569   +53 05 48.92  .15629 1.1064 139.1 22.2 .578  26
2019 01 12 09  09 50 40.458   +53 03 13.69  .15618 1.1064 139.2 22.2 .605  27
2019 01 12 10  09 50 33.339   +53 00 38.13  .15607 1.1064 139.2 22.2 .633  27
2019 01 12 11  09 50 26.212   +52 58 02.24  .15596 1.1064 139.3 22.2 .661  27
2019 01 12 12  09 50 19.078   +52 55 26.02  .15585 1.1064 139.3 22.2 .690  27
2019 01 12 13  09 50 11.936   +52 52 49.47  .15574 1.1064 139.4 22.2 .720  27
2019 01 12 14  09 50 04.787   +52 50 12.59  .15563 1.1064 139.5 22.2 .750  27
2019 01 12 15  09 49 57.630   +52 47 35.37  .15552 1.1064 139.5 22.2 .782  28
2019 01 12 16  09 49 50.466   +52 44 57.83  .15541 1.1064 139.6 22.2 .814  28
2019 01 12 17  09 49 43.295   +52 42 19.95  .15530 1.1064 139.6 22.2 .846  28
2019 01 12 18  09 49 36.116   +52 39 41.74  .15520 1.1064 139.7 22.2 .879  28
2019 01 12 19  09 49 28.930   +52 37 03.19  .15509 1.1064 139.7 22.2 .914  28
2019 01 12 20  09 49 21.737   +52 34 24.31  .15498 1.1064 139.8 22.2 .948  28
2019 01 12 21  09 49 14.536   +52 31 45.10  .15487 1.1064 139.9 22.2 .984  28
2019 01 12 22  09 49 07.329   +52 29 05.55  .15476 1.1064 139.9 22.2 1.02  28
2019 01 12 23  09 49 00.114   +52 26 25.67  .15465 1.1064 140.0 22.2 1.06  28
2019 01 13 00  09 48 52.893   +52 23 45.45  .15455 1.1064 140.0 22.2 1.09  28
2019 01 13 01  09 48 45.664   +52 21 04.90  .15444 1.1064 140.1 22.2 1.13  28
2019 01 13 02  09 48 38.429   +52 18 24.01  .15433 1.1064 140.1 22.2 1.17  28
2019 01 13 03  09 48 31.186   +52 15 42.79  .15422 1.1064 140.2 22.2 1.21  28
2019 01 13 04  09 48 23.937   +52 13 01.22  .15412 1.1064 140.3 22.2 1.25  29
2019 01 13 05  09 48 16.681   +52 10 19.33  .15401 1.1064 140.3 22.2 1.29  29
2019 01 13 06  09 48 09.419   +52 07 37.09  .15390 1.1064 140.4 22.2 1.34  29
2019 01 13 07  09 48 02.149   +52 04 54.51  .15380 1.1064 140.4 22.2 1.38  29
2019 01 13 08  09 47 54.874   +52 02 11.60  .15369 1.1064 140.5 22.2 1.42  29
2019 01 13 09  09 47 47.591   +51 59 28.35  .15358 1.1064 140.6 22.2 1.47  29
2019 01 13 10  09 47 40.302   +51 56 44.76  .15348 1.1064 140.6 22.2 1.51  29
2019 01 13 11  09 47 33.007   +51 54 00.83  .15337 1.1064 140.7 22.2 1.56  29
2019 01 13 12  09 47 25.705   +51 51 16.56  .15327 1.1064 140.7 22.1 1.60  29
2019 01 13 13  09 47 18.397   +51 48 31.95  .15316 1.1064 140.8 22.1 1.65  29
2019 01 13 14  09 47 11.083   +51 45 47.00  .15306 1.1064 140.8 22.1 1.70  29
2019 01 13 15  09 47 03.762   +51 43 01.71  .15295 1.1064 140.9 22.1 1.75  29
2019 01 13 16  09 46 56.435   +51 40 16.08  .15285 1.1064 141.0 22.1 1.80  29
2019 01 13 17  09 46 49.102   +51 37 30.10  .15274 1.1064 141.0 22.1 1.85  29
2019 01 13 18  09 46 41.763   +51 34 43.79  .15264 1.1064 141.1 22.1 1.90  29
2019 01 13 19  09 46 34.418   +51 31 57.13  .15253 1.1065 141.1 22.1 1.95  29
2019 01 13 20  09 46 27.067   +51 29 10.13  .15243 1.1065 141.2 22.1 2.00  29
2019 01 13 21  09 46 19.710   +51 26 22.79  .15232 1.1065 141.3 22.1 2.06  29
2019 01 13 22  09 46 12.346   +51 23 35.10  .15222 1.1065 141.3 22.1 2.11  29
2019 01 13 23  09 46 04.978   +51 20 47.07  .15212 1.1065 141.4 22.1 2.17  29
2019 01 14 00  09 45 57.603   +51 17 58.70  .15201 1.1065 141.4 22.1 2.22  29